Location: Enchastnaves
(44.3667°N, 6.6951°E)
Time: 11:04:04
(UTC+00:00)

Daily predictions for brighter satellites

Satellite Brightness Start Highest point End
(mag) Time Altitude Azimuth Time Altitude Azimuth Time Altitude Azimuth
Cosmos 2278 3.8 18:32:28 10° SSW 18:38:07 86° WNW 18:43:50 10° NNE
Cosmos 1844 Rocket 3.0 18:35:44 10° NNW 18:41:18 71° WSW 18:46:49 10° SSE
Cosmos 2360 Rocket 2.2 18:37:13 10° SSW 18:42:47 68° ESE 18:48:24 10° NNE
Cosmos 2228 Rocket 3.5 18:39:25 10° N 18:43:45 45° ENE 18:48:01 10° SSE
Aureole 2 4.4 18:44:14 10° NNW 18:47:45 68° ENE 18:51:08 10° SSE
COSMO-SKYMED 1 4.1 18:44:06 10° N 18:47:57 40° WNW 18:51:47 10° SW
BlueWalker 3 2.8 18:45:25 10° WNW 18:48:49 41° SW 18:52:12 10° SSE
Cosmos 2184 Rocket 4.1 18:44:26 10° S 18:50:39 58° E 18:56:53 10° NNE
Cosmos 2322 Rocket 2.2 18:45:06 10° SSW 18:50:42 85° ESE 18:56:21 10° NNE
SL-19 R/B 4.4 18:46:23 10° S 18:51:34 73° WSW 18:56:57 10° NNW
Cosmos 1666 Rocket 3.4 18:48:51 10° S 18:53:07 80° E 18:57:25 10° N
Cosmos 1633 Rocket 3.0 18:49:50 10° S 18:54:10 68° E 18:58:32 10° NNE
Cosmos 1340 Rocket 2.5 18:51:13 10° S 18:54:52 88° E 18:58:33 10° N
BREEZE-M DEB (TANK) 1.6 18:56:21 10° WSW 18:58:38 73° SSE 19:01:20 10° ENE
SL-16 R/B 3.3 18:53:14 10° SW 18:58:43 49° WNW 19:04:14 10° NNE
Terra 2.9 18:55:44 10° ESE 18:59:33 26° ENE 19:03:24 10° N
Atlas Centaur 2 4.3 18:58:12 10° SW 19:01:32 15° SSW 19:05:14 10° SSE
CSL-04 Debris 4.3 18:56:48 10° SSE 19:02:02 58° ENE 19:07:18 10° N
Meteor 1-22 Rocket 4.4 18:57:34 10° SSW 19:03:09 83° W 19:09:02 10° N
Cosmos 1898 Rocket 3.5 18:58:42 10° S 19:03:53 66° ESE 19:09:04 10° NNE
CZ-4 R/B 1.6 19:00:43 10° SE 19:04:20 43° ENE 19:07:56 10° N
Resurs 01 Rocket 3.3 19:02:17 10° SSW 19:06:18 35° W 19:10:21 10° NNW
Okean O Rocket 3.4 19:06:43 12° E 19:08:47 16° ENE 19:11:27 10° NNE
SL-08 R/B 4.4 19:06:54 10° NE 19:10:53 25° E 19:14:52 10° SSE
Cosmos 2333 4.2 19:07:48 10° SSW 19:13:24 86° WNW 19:19:02 10° NNE
Cosmos 372 Rocket 4.2 19:09:32 10° SSW 19:14:45 76° WNW 19:20:00 10° NNE
Meteor 1-24 Rocket 3.7 19:09:45 10° NNW 19:15:13 85° W 19:20:52 10° S
Tiangong 0.2 19:13:29 10° WSW 19:15:31 16° SSW 19:17:33 10° SSE
Cosmos 1538 Rocket 4.1 19:10:24 10° NNW 19:15:34 82° WSW 19:20:43 10° SSE
CENTAUR R/B 4.4 19:09:49 10° NW 19:17:54 46° WSW 19:26:46 10° S
Cosmos 1680 Rocket 4.2 19:14:14 10° N 19:19:03 36° ENE 19:22:22 18° ESE
Cosmos 2219 Rocket 2.1 19:13:40 10° SSW 19:19:14 81° ESE 19:24:51 10° NNE
SPOT 5 2.8 19:14:50 10° SSE 19:19:40 84° WSW 19:24:15 10° NNW
CZ-4B R/B 3.5 19:18:28 10° SSE 19:22:01 89° ENE 19:25:43 10° NNW
Cosmos 2074 Rocket 4.1 19:16:08 10° S 19:22:22 81° W 19:28:39 10° N
Meteor 1-31 Rocket 2.5 19:21:10 10° SSE 19:24:40 88° WSW 19:28:13 10° NNW
Cosmos 1937 Rocket 3.4 19:20:09 10° SSW 19:25:25 75° ESE 19:30:43 10° NNE
Cosmos 1339 Rocket 4.5 19:25:04 10° N 19:31:23 72° E 19:37:32 10° SSE
SL-24 R/B - RUBIN 2 4.3 19:28:49 10° NNW 19:32:58 39° NE 19:35:17 23° ESE
SL-8 Rocket 4.4 19:29:04 10° SSE 19:34:42 40° E 19:40:28 10° NNE
Cosmos 923 Rocket 4.0 19:29:51 10° NNW 19:35:09 67° ENE 19:38:50 20° SSE
USA 234 3.8 19:29:02 10° NE 19:35:26 60° NNW 19:41:51 10° WSW
COSMOS 2428 3.2 19:31:25 10° S 19:36:37 37° ESE 19:41:50 10° NE
PAYLOAD B 4.2 19:33:50 12° SSE 19:38:56 78° ENE 19:44:26 10° NNW
Cosmos 1953 4.1 19:35:47 10° SW 19:38:57 30° WNW 19:42:10 10° NNW
CZ-4B R/B 3.3 19:35:07 16° SSE 19:39:28 64° ENE 19:45:01 10° N
MetOp-B 4.2 19:35:41 17° SSE 19:39:52 65° ENE 19:45:12 10° N
CZ-4B DEB 4.2 19:34:38 10° SSE 19:40:04 90° E 19:45:35 10° NNW
CSL-04 Rocket 4.2 19:34:59 10° S 19:40:26 62° WSW 19:45:57 10° NNW
Cosmos 2366 rocket 4.3 19:40:01 15° SSE 19:44:40 42° E 19:50:24 10° NNE
Cosmos 2278 Rocket 3.4 19:40:41 10° N 19:45:29 27° NE 19:47:49 21° E
SKYMED 3 4.2 19:43:19 10° NNE 19:47:11 61° ESE 19:50:05 17° S
Cosmos 2327 Rocket 4.4 19:41:54 10° S 19:47:57 67° E 19:54:09 10° NNE
Cosmos 2333 Rocket 4.4 19:43:33 10° WSW 19:48:19 27° NW 19:53:07 10° N
NOSS 3-2 (C) 4.1 19:43:12 10° NW 19:50:37 77° NE 19:56:23 24° SE
Cosmos 1703 Rocket 3.8 19:51:01 10° NNW 19:55:18 66° W 19:58:41 16° S
Geosat 4.3 19:50:47 10° NNE 19:55:46 68° WNW 20:00:43 10° SW
Spot 2 Rocket 3.8 19:53:55 31° SE 19:55:54 48° ENE 20:00:44 10° N
BREEZE-M DEB (TANK) 3.2 19:54:27 10° WNW 19:56:54 37° N 19:59:33 19° ENE
Lacrosse 5 rocket 0.9 19:55:21 10° WSW 19:58:32 66° NW 20:00:40 19° NE
ARIANE 6 FM1 Upper Stage 4.5 19:56:08 10° WSW 19:59:51 32° NW 20:03:30 10° NNE
NOSS 2-3 (D) 4.4 19:55:42 10° NNW 20:00:49 67° NE 20:03:53 32° SE
ERS-1 Rocket 3.1 19:57:46 18° S 20:01:31 75° WSW 20:06:32 10° NNW
Cosmos 1933 Rocket 3.6 19:59:24 10° SSW 20:03:44 76° W 20:08:09 10° N
Cosmos 2218 Rocket 3.9 20:06:05 23° SSE 20:09:59 61° E 20:16:02 10° NNE
Cosmos 1943 Rocket 2.6 20:05:50 10° NNW 20:11:20 48° ENE 20:12:58 37° ESE
YAOGAN 11 3.9 20:08:45 10° NNE 20:12:58 67° ESE 20:13:56 49° SSE
Meteor 2-15 4.4 20:11:09 30° SSE 20:14:06 58° E 20:20:03 10° NNE
In-Cosmos 22 Rocket 4.0 20:11:18 10° N 20:16:40 88° W 20:19:02 34° S
MOS 1-B 4.3 20:14:21 36° SSE 20:16:48 75° ENE 20:22:35 10° NNW
USA 59 Rocket 2.1 20:16:04 10° NNE 20:17:13 11° NE 20:17:17 11° NE
Cosmos 1733 Rocket 3.8 20:18:20 36° ENE 20:18:20 36° ENE 20:21:38 10° NNE
Cosmos 192 4.4 20:18:37 51° ESE 20:18:47 51° ESE 20:23:33 10° NNE
Cosmos 1959 Rocket 4.4 20:15:53 24° S 20:19:48 70° E 20:26:07 10° NNE
NOSS 3-4 (A) 4.4 20:23:14 24° ENE 20:23:14 24° ENE 20:25:45 10° NE
CZ-4B R/B 4.0 20:20:21 38° ENE 20:20:41 38° ENE 20:25:08 10° N
SeaSat 1 4.3 20:19:54 15° ENE 20:20:58 16° NE 20:23:57 10° N
NOSS 3-4 (C) 4.5 20:23:46 23° ENE 20:23:46 23° ENE 20:26:15 10° NE
Okean-O 2.5 20:20:35 60° SE 20:21:20 78° ENE 20:25:43 10° N
Cosmos 1821 Rocket 4.0 20:22:24 39° SSE 20:24:28 57° E 20:30:37 10° NNE
Cosmos 494 Rocket 3.9 20:19:41 10° NNW 20:24:52 81° WSW 20:26:29 45° S
Cosmos 1048 Rocket 4.1 20:24:17 10° NNW 20:29:19 55° ENE 20:29:52 52° E
Cosmos 1869 Rocket 4.3 20:30:47 18° SSW 20:33:46 51° WNW 20:38:04 10° N
Timation 2 Rocket 4.2 20:28:37 10° NNW 20:34:48 56° ENE 20:36:19 46° ESE
Terra 3.0 20:34:16 20° SSW 20:36:54 37° W 20:41:16 10° NNW
CZ-4 R/B 4.0 20:36:27 10° SW 20:38:33 14° W 20:40:39 10° WNW
Aureole 3 3.8 20:36:17 10° N 20:40:03 58° NE 20:40:03 58° NE
Meteor 2-21 4.3 20:35:20 10° N 20:41:27 74° E 20:42:49 55° SSE
Okean O Rocket 2.0 20:43:57 51° SW 20:44:32 56° W 20:48:50 10° NNW
Cosmos 2237 Rocket 2.4 20:47:31 52° ENE 20:47:31 52° ENE 20:52:18 10° NNE
Cosmos 2242 Rocket 3.6 20:42:13 10° N 20:46:21 73° NNE 20:46:21 73° NNE
Cosmos 1980 3.7 20:47:57 60° E 20:47:57 60° E 20:53:07 10° NNE
CZ-4B R/B 3.9 20:51:35 38° N 20:51:35 38° N 20:53:52 10° NNW
ASTEX 1 3.2 20:50:47 87° ESE 20:50:50 88° E 20:55:45 10° N
Cosmos 2322 4.4 20:45:16 10° SW 20:50:50 53° WNW 20:56:28 10° NNE
Cosmos 1025 Rocket 4.4 20:46:57 10° N 20:49:24 28° NNE 20:49:24 28° NNE
Cosmos 2292 Rocket 4.5 20:49:20 10° N 20:54:03 45° NE 20:54:03 45° NE
SPOT 3 Rocket 3.4 21:02:11 86° SW 21:02:14 86° WSW 21:07:28 10° NNW
Meteor 2-21 Rocket 4.3 21:08:21 10° N 21:14:30 89° W 21:14:50 81° S
COSMOS 2428 4.1 21:15:33 10° WSW 21:20:48 37° NW 21:26:07 10° NNE
Cosmos 2369 Rocket 3.8 21:16:39 10° N 21:20:57 23° NE 21:20:57 23° NE
Ariane Rocket 3.4 21:26:52 59° WNW 21:26:52 59° WNW 21:31:13 10° NNW
Cosmos 1727 Rocket 4.1 21:21:37 10° NNW 21:27:56 67° W 21:28:33 63° SW
Cosmos 2278 Rocket 2.7 21:24:20 10° NW 21:29:39 52° W 21:29:39 52° W
USA 238 DEB 3.8 21:23:51 10° NW 21:31:22 87° SW 21:32:16 73° SSE
USA 238 3.8 21:24:01 10° NW 21:31:32 88° SW 21:32:26 73° SSE
Lacrosse 5 rocket 4.2 21:33:53 10° NW 21:34:04 11° NW 21:34:04 11° NW
Cosmos 1656 Rocket 4.4 21:46:17 10° NNW 21:50:17 49° N 21:50:17 49° N
SL-16 R/B 3.9 21:58:05 24° NE 21:58:05 24° NE 22:00:17 10° NNE
Cosmos 1943 Rocket 3.7 21:50:05 10° NW 21:54:29 27° W 21:54:29 27° W
SeaSat 1 3.6 21:59:30 40° NNW 21:59:30 40° NNW 22:02:36 10° NNW
Cosmos 1934 Rocket 4.3 22:03:44 65° NW 22:03:44 65° NW 22:09:20 10° N
Cosmos 2123 Rocket 4.3 21:58:18 10° NNW 22:03:50 60° WNW 22:03:50 60° WNW
USA 59 Rocket 2.8 22:02:32 10° NW 22:02:49 12° NW 22:02:49 12° NW
NOSS 3-4 (A) 4.3 22:10:28 36° WNW 22:11:22 39° NW 22:16:51 10° NNE
NOSS 3-4 (C) 4.3 22:11:02 37° WNW 22:11:52 39° NW 22:17:23 10° NNE
NOSS 3-1 (C) 4.4 22:21:33 10° NNW 22:28:19 52° NE 22:28:44 51° NE
Cosmos 2237 Rocket 4.1 22:29:12 22° W 22:31:08 26° NW 22:35:51 10° N
COSMOS 2455 4.4 22:40:22 10° NNW 22:45:15 27° NE 22:45:15 27° NE
Cosmos 2369 Rocket 3.8 22:59:59 10° NNW 23:02:43 29° NW 23:02:43 29° NW
SJ 16-02 4.3 23:32:38 10° N 23:33:17 14° N 23:33:17 14° N
SL-16 R/B 4.0 23:39:53 25° NW 23:39:53 25° NW 23:43:54 10° N
CZ-2C R/B 4.2 23:44:18 34° N 23:44:18 34° N 23:47:22 10° N
ACS3 Solar Sail 3.7 23:37:32 10° NE 23:40:25 20° ENE 23:40:25 20° ENE
